• Join FlightAware (Why Join?)
  • Login
  • US Flag 
10:08AM EST


 

Airport Tracker/Info


-or-


 

Live Flight TrackerFlight Track Log ✈ NKS843 ✈ 22-Jun-2013 ✈ KORD - KMYR

Flight Track Log - Related Links

Times and Time Zones

All times are in EDT time to prevent confusion due to time zone crossing. See the NKS843 flight status page for this flight to view local times or setup timezone preferences in your user account.

Time Position Orientation Groundspeed Altitude Reporting Facility
EDT Latitude Longitude Course Direction KTS MPH feet Rate Location/Type
08:08AM 41.8853 -87.8750 169° South 215 247 3,200  Level Chicago Center
08:09AM 41.8142 -87.8317 156° South 269 310 6,200 3,122 Climbing Chicago Center
08:10AM 41.7444 -87.7836 153° Southeast 281 323 9,600 1,701 Climbing Chicago Center
08:13AM 41.4943 -87.2945 169° South  Level Estimated
08:16AM 41.4150 -87.5710 153° Southeast 382 440 17,600  Level FlightAware
08:16AM 41.3800 -87.5650 173° South 384 442 18,300 944 Climbing FlightAware
08:17AM 41.3410 -87.5580 172° South 388 447 19,000 1,116 Climbing FlightAware
08:18AM 41.2860 -87.5480 172° South 394 453 19,900 2,682 Climbing FlightAware
08:19AM 41.0640 -87.4970 170° South 426 490 22,800 4,500 Climbing FlightAware
08:19AM 40.7940 -87.4250 169° South 440 506 26,200 3,000 Climbing FlightAware
08:20AM 40.7390 -87.4100 168° South 444 511 26,700 1,000 Climbing FlightAware
08:20AM 40.6510 -87.3870 169° South 454 522 27,400 308 Climbing FlightAware
08:22AM 40.6300 -87.3810 168° South 456 525 27,500 920 Climbing FlightAware
08:23AM 40.4270 -87.3130 166° South 457 526 29,500 3,709 Climbing FlightAware
08:23AM 40.3100 -87.2020 144° Southeast 456 525 30,900 1,059 Climbing FlightAware
08:24AM 40.2330 -87.1310 145° Southeast 453 521 31,000 70 Climbing FlightAware
08:25AM 40.1620 -87.0650 145° Southeast 456 525 31,000  Level FlightAware
08:25AM 40.1080 -87.0150 145° Southeast 456 525 31,000  Level FlightAware
08:26AM 40.0200 -86.9330 144° Southeast 460 529 31,000 59 Level FlightAware
08:27AM 39.9180 -86.8400 145° Southeast 459 528 31,100 61 Climbing FlightAware
08:28AM 39.8680 -86.7470 125° Southeast 454 522 31,100 -73 Level FlightAware
08:29AM 39.8240 -86.6550 122° Southeast 453 521 31,000 -70 Descending FlightAware
08:29AM 39.7720 -86.5480 122° Southeast 453 521 31,000  Level FlightAware
08:30AM 39.7370 -86.4760 122° Southeast 453 521 31,000  Level FlightAware
08:31AM 39.6540 -86.3060 122° Southeast 454 522 31,000  Level FlightAware
08:32AM 39.6000 -86.1950 122° Southeast 453 521 31,000  Level FlightAware
08:33AM 39.5500 -86.0940 123° Southeast 453 521 31,000  Level FlightAware
08:33AM 39.5060 -86.0040 122° Southeast 453 521 31,000  Level FlightAware
08:34AM 39.4580 -85.9060 122° Southeast 451 519 31,000  Level FlightAware
08:35AM 39.4090 -85.8080 123° Southeast 447 514 31,000  Level FlightAware
08:35AM 39.3610 -85.7110 123° Southeast 445 512 31,000  Level FlightAware
08:36AM 39.3200 -85.6290 123° Southeast 444 511 31,000  Level FlightAware
08:37AM 39.2670 -85.5220 123° Southeast 443 510 31,000  Level FlightAware
08:37AM 39.2240 -85.4360 123° Southeast 445 512 31,000  Level FlightAware
08:38AM 39.1780 -85.3460 123° Southeast 449 517 31,000  Level FlightAware
08:39AM 39.1370 -85.2640 123° Southeast 449 517 31,000 72 Level FlightAware
08:40AM 39.0840 -85.1580 123° Southeast 448 516 31,100 57 Climbing FlightAware
08:40AM 39.0260 -85.0440 123° Southeast 447 514 31,100 -59 Level FlightAware
08:41AM 38.9690 -84.9330 123° Southeast 447 514 31,000 -74 Descending FlightAware
08:42AM 38.9270 -84.8500 123° Southeast 447 514 31,000  Level FlightAware
08:43AM 38.8780 -84.7550 124° Southeast 446 513 31,000  Level FlightAware
08:44AM 38.7970 -84.5960 123° Southeast 442 509 31,000  Level FlightAware
08:44AM 38.7520 -84.5100 124° Southeast 439 505 31,000 63 Level FlightAware
08:45AM 38.7000 -84.4070 123° Southeast 438 504 31,100 64 Climbing FlightAware
08:46AM 38.6630 -84.3350 123° Southeast 438 504 31,100  Level FlightAware
08:47AM 38.6150 -84.2390 123° Southeast 438 504 31,100  Level FlightAware
08:47AM 38.5780 -84.1670 123° Southeast 438 504 31,100  Level FlightAware
08:48AM 38.5460 -84.1040 123° Southeast 438 504 31,100  Level FlightAware
08:49AM 38.5000 -84.0130 123° Southeast 438 504 31,100  Level FlightAware
08:50AM 38.4640 -83.9430 123° Southeast 438 504 31,100 -78 Level FlightAware
08:50AM 38.2760 -83.8710 163° South 447 514 31,000 -67 Descending FlightAware
08:51AM 38.2120 -83.7950 137° Southeast 447 514 31,000  Level FlightAware
08:52AM 38.1610 -83.7350 137° Southeast 447 514 31,000  Level FlightAware
08:52AM 38.0713 -83.6338 138° Southeast 31,000  Level FlightAware ADS-B
08:53AM 38.0341 -83.5907 138° Southeast 445 512 31,000  Level FlightAware ADS-B
08:53AM 37.9779 -83.5258 138° Southeast 445 512 31,000  Level FlightAware ADS-B
08:54AM 37.9301 -83.4706 138° Southeast 446 513 31,000  Level FlightAware ADS-B
08:54AM 37.8801 -83.4130 138° Southeast 446 513 31,000 61 Level FlightAware ADS-B
08:56AM 37.7796 -83.2976 138° Southeast 443 510 31,100 59 Climbing FlightAware ADS-B
08:56AM 37.7251 -83.2354 138° Southeast 441 507 31,100 -87 Level FlightAware ADS-B
08:57AM 37.6762 -83.1796 138° Southeast 440 506 31,000 -94 Descending FlightAware ADS-B
08:57AM 37.6299 -83.1266 138° Southeast 440 506 31,000  Level FlightAware ADS-B
08:58AM 37.5844 -83.0747 138° Southeast 441 507 31,000  Level FlightAware ADS-B
08:58AM 37.5304 -83.0135 138° Southeast 443 510 31,000  Level FlightAware ADS-B
08:59AM 37.4821 -82.9588 138° Southeast 446 513 31,000  Level FlightAware ADS-B
08:59AM 37.4342 -82.9045 138° Southeast 447 514 31,000 98 Level FlightAware ADS-B
09:00AM 37.3876 -82.8519 138° Southeast 445 512 31,100 94 Climbing FlightAware ADS-B
09:00AM 37.3368 -82.7947 138° Southeast 444 511 31,100 -87 Level FlightAware ADS-B
09:01AM 37.2870 -82.7380 138° Southeast 444 511 31,000 -125 Descending FlightAware
09:01AM 37.2626 -82.7111 139° Southeast 443 510 31,000  Level FlightAware ADS-B
09:02AM 37.2128 -82.6553 138° Southeast 442 509 31,000  Level FlightAware ADS-B
09:02AM 37.1640 -82.6006 138° Southeast 440 506 31,000  Level FlightAware ADS-B
09:03AM 37.1178 -82.5490 138° Southeast 438 504 31,000  Level FlightAware ADS-B
09:03AM 37.0702 -82.4957 138° Southeast 438 504 31,000  Level FlightAware ADS-B
09:04AM 37.0224 -82.4425 138° Southeast 438 504 31,000  Level FlightAware ADS-B
09:04AM 36.9744 -82.3890 138° Southeast 439 505 31,000  Level FlightAware ADS-B
09:05AM 36.9259 -82.3352 138° Southeast 441 507 31,000  Level FlightAware ADS-B
09:05AM 36.8801 -82.2845 138° Southeast 442 509 31,000  Level FlightAware ADS-B
09:06AM 36.8332 -82.2324 138° Southeast 441 507 31,000  Level FlightAware ADS-B
09:06AM 36.7784 -82.1719 139° Southeast 441 507 31,000  Level FlightAware ADS-B
09:07AM 36.7315 -82.1201 138° Southeast 441 507 31,000  Level FlightAware ADS-B
09:08AM 36.6831 -82.0667 138° Southeast 439 505 31,000  Level FlightAware ADS-B
09:08AM 36.6354 -82.0143 139° Southeast 439 505 31,000  Level FlightAware ADS-B
09:09AM 36.5873 -81.9616 139° Southeast 440 506 31,000  Level FlightAware ADS-B
09:09AM 36.5406 -81.9105 139° Southeast 440 506 31,000  Level FlightAware ADS-B
09:10AM 36.4933 -81.8588 139° Southeast 440 506 31,000  Level FlightAware ADS-B
09:10AM 36.4452 -81.8064 139° Southeast 440 506 31,000  Level FlightAware ADS-B
09:11AM 36.3988 -81.7558 139° Southeast 441 507 31,000  Level FlightAware ADS-B
09:11AM 36.3467 -81.6991 139° Southeast 441 507 31,000  Level FlightAware ADS-B
09:12AM 36.2957 -81.6439 139° Southeast 441 507 31,000  Level FlightAware ADS-B
09:12AM 36.2474 -81.5916 139° Southeast 439 505 31,000  Level FlightAware ADS-B
09:13AM 36.1849 -81.5239 139° Southeast 439 505 31,000  Level FlightAware ADS-B
09:13AM 36.1390 -81.4744 139° Southeast 437 503 31,000  Level FlightAware ADS-B
09:14AM 36.0700 -81.4001 139° Southeast 435 501 31,000  Level FlightAware ADS-B
09:15AM 36.0310 -81.3580 139° Southeast 434 499 31,000  Level FlightAware
09:15AM 35.9742 -81.2973 139° Southeast 434 499 31,000  Level FlightAware ADS-B
09:16AM 35.9282 -81.2479 139° Southeast 435 501 31,000  Level FlightAware ADS-B
09:16AM 35.8704 -81.1860 139° Southeast 435 501 31,000  Level FlightAware ADS-B
09:17AM 35.8160 -81.1280 139° Southeast 435 501 31,000  Level FlightAware
09:18AM 35.7500 -81.0580 139° Southeast 435 501 31,000  Level FlightAware
09:18AM 35.6840 -80.9870 139° Southeast 436 502 31,000  Level FlightAware
09:19AM 35.6120 -80.9110 139° Southeast 436 502 31,000  Level FlightAware
09:20AM 35.5500 -80.8450 139° Southeast 436 502 31,000 -361 Level FlightAware
09:21AM 35.4850 -80.7770 140° Southeast 423 487 30,500 -776 Descending FlightAware
09:21AM 35.4270 -80.7160 139° Southeast 416 479 29,900 -951 Descending FlightAware
09:22AM 35.3640 -80.6490 139° Southeast 416 479 29,200 -1,012 Descending FlightAware
09:23AM 35.3020 -80.5840 139° Southeast 413 475 28,500 -977 Descending FlightAware
09:23AM 35.2400 -80.5200 140° Southeast 404 465 27,800 -929 Descending FlightAware
09:24AM 35.1820 -80.4590 139° Southeast 402 463 27,200 -975 Descending FlightAware
09:25AM 35.1280 -80.4020 139° Southeast 397 457 26,500 -951 Descending FlightAware
09:25AM 35.0700 -80.3420 140° Southeast 397 457 25,900 -907 Descending FlightAware
09:26AM 35.0090 -80.2780 139° Southeast 385 443 25,200 -614 Descending FlightAware
09:27AM 34.9490 -80.2170 140° Southeast 386 444 25,000 -143 Descending FlightAware
09:28AM 34.8940 -80.1600 140° Southeast 385 443 25,000  Level FlightAware
09:29AM 34.8160 -80.0790 140° Southeast 385 443 25,000  Level FlightAware
09:29AM 34.7660 -80.0280 140° Southeast 384 442 25,000 -434 Level FlightAware
09:30AM 34.7000 -79.9600 140° Southeast 379 436 24,400 -594 Descending FlightAware
09:31AM 34.6290 -79.8880 140° Southeast 380 437 24,000 -1,286 Descending FlightAware
09:32AM 34.5680 -79.8250 140° Southeast 399 459 22,300 -2,357 Descending FlightAware
09:32AM 34.5140 -79.7700 140° Southeast 394 453 20,700 -2,550 Descending FlightAware
09:33AM 34.4560 -79.7110 140° Southeast 394 453 18,900 -2,400 Descending FlightAware
09:34AM 34.3940 -79.6470 140° Southeast 386 444 17,300 -2,118 Descending FlightAware
09:34AM 34.3400 -79.5930 140° Southeast 378 435 15,900 -2,175 Descending FlightAware
09:35AM 34.2870 -79.5390 140° Southeast 373 429 14,400 -2,118 Descending FlightAware
09:36AM 34.2290 -79.4800 140° Southeast 363 418 12,900 -2,047 Descending FlightAware
09:36AM 34.1800 -79.4300 140° Southeast 357 411 11,500 -1,482 Descending FlightAware
09:37AM 34.1200 -79.3760 143° Southeast 326 375 10,800 -494 Descending FlightAware
09:38AM 34.0680 -79.3440 153° Southeast 323 372 10,800  Level FlightAware
09:39AM 34.0060 -79.3060 153° Southeast 325 374 10,800 -71 Level FlightAware
09:39AM 33.9530 -79.2730 153° Southeast 321 369 10,700 -640 Descending FlightAware
09:40AM 33.9080 -79.2440 152° Southeast 305 351 10,000 -1,108 Descending FlightAware
09:40AM 33.8730 -79.2210 151° Southeast 292 336 9,500 -1,300 Descending FlightAware
09:41AM 33.8350 -79.2030 159° South 291 335 8,700 -1,467 Descending FlightAware
09:41AM 33.8160 -79.1990 170° South 287 330 8,400 -787 Descending FlightAware
09:42AM 33.7630 -79.1910 173° South 287 330 7,900 -1,600 Descending FlightAware
09:42AM 33.7190 -79.1830 171° South 284 327 6,400 -1,588 Descending FlightAware
09:43AM 33.6720 -79.1750 172° South 283 326 6,100 -1,052 Descending FlightAware
09:44AM 33.6000 -79.1620 171° South 278 320 4,700 -1,448 Descending FlightAware
09:52AM 33.6797 -78.9283 68° East  Level Estimated
09:53AM 33.6797 -78.9283 270° West  Level Estimated
09:54AM 33.6797 -78.9283 270° West  Level Estimated
09:55AM 33.6797 -78.9283 270° West  Level Estimated
09:56AM 33.6797 -78.9283 270° West  Level Estimated
09:57AM 33.6797 -78.9283 270° West  Level Estimated